Home   Weather   Tandil   Past weeks
Flag for Argentina

Past Weather in Tandil, Buenos Aires, Argentina — Yesterday and Last 2 Weeks

Now
52 °F

Overcast.


Feels Like: 48 °F
Forecast: 51 / 38 °F
Wind: 13 mph from East

Location: Tandil Aerodrome

Current Time: Oct 15, 2019 at 3:46:54 pm

Latest Report: Oct 15, 2019 at 2:00 pm


Visibility: 9 mi

Pressure: 30.47 "Hg

Humidity: 59%

Dew Point: 38 °F

Location of TandilLocation

Past Weather in Tandil — Graph

°F

Tandil Temperature Yesterday

Maximum temperature yesterday: 56 °F (at 3:00 pm)
Minimum temperature yesterday: 34 °F (at 2:00 am)
Average temperature yesterday: 45 °F

High & Low Weather Summary for the Past Weeks

 TemperatureHumidityPressure
High82 °F (Oct 10, 3:00 pm)100% (Oct 5, 2:00 am)30.58 "Hg (Oct 5, 2:00 am)
Low28 °F (Oct 3, 5:00 am)19% (Oct 7, 4:00 pm)29.64 "Hg (Oct 11, 12:00 am)
Average53 °F64%30.07 "Hg
* Reported Sep 30 2:00 pm — Oct 15 2:00 pm, Tandil. Weather by CustomWeather, © 2019

Note: Actual official high and low records may vary slightly from our data, if they occured in-between our weather recording intervals... More about our weather records

Advertising

Tandil Weather History for the Previous 24 Hours

Scroll right to see more
 ConditionsComfort  
Time TempWeatherWind HumidityBarometerVisibility
2:00 pm
Tue, Oct 15
52 °FOvercast.13 mph59%30.47 "Hg9 mi
1:00 pm51 °FOvercast.13 mph62%30.49 "Hg9 mi
12:00 pm50 °FOvercast.14 mph63%30.50 "Hg9 mi
11:00 am48 °FOvercast.13 mph64%30.53 "Hg9 mi
10:00 am45 °FOvercast.15 mph64%30.53 "Hg9 mi
9:00 am43 °FFog.14 mph73%30.55 "Hg8 mi
8:00 am42 °FFog.10 mph72%30.56 "Hg8 mi
7:00 am42 °FFog.7 mph73%30.58 "Hg8 mi
6:00 am41 °FOvercast.7 mph70%30.55 "Hg12 mi
5:00 am41 °FOvercast.6 mph71%30.54 "Hg9 mi
4:00 am41 °FOvercast.8 mph69%30.54 "Hg9 mi
3:00 am41 °FOvercast.7 mph71%30.55 "Hg9 mi
2:00 am41 °FOvercast.9 mph70%30.55 "Hg9 mi
1:00 am41 °FOvercast.9 mph68%30.57 "Hg9 mi
12:00 am41 °FOvercast.10 mph68%30.57 "Hg9 mi
11:00 pm
Mon, Oct 14
41 °FOvercast.12 mph68%30.57 "Hg9 mi
10:00 pm42 °FOvercast.15 mph63%30.58 "Hg9 mi
9:00 pm44 °FOvercast.15 mph57%30.55 "Hg9 mi
8:00 pm45 °FOvercast.15 mph58%30.53 "Hg9 mi
7:00 pm46 °FOvercast.14 mph51%30.51 "Hg12 mi
6:00 pm52 °FOvercast.18 mph44%30.47 "Hg12 mi
5:00 pm55 °FPassing clouds.18 mph39%30.46 "Hg12 mi
4:00 pm56 °FPassing clouds.18 mph34%30.46 "Hg12 mi
3:00 pm56 °FPassing clouds.16 mph40%30.48 "Hg12 mi
Weather by CustomWeather, © 2019

See weather overview